Terug naar catalogus

FENGYUN 1C DEB

ActiefSSO
NORAD 31829·DEBRIS·🇨🇳 China

Gelanceerd May 10, 1999 vanaf Taiyuan Satellite Launch Center

Loading…

Volgende Passages (komende 24 uur)

TLE

VersSource: Space-Track

Epoch: Sep 13, 2026, 06:16 UTC

1 31829U 99025CHT 26256.26132152  .00000333  00000-0  27534-3 0  9994
2 31829  98.8670  57.4084 0169388 136.2338 348.2367 13.88928567979580

Volg FENGYUN 1C DEB in realtime met AllMySat

Download on the App Store